Location: Izdebno
(52.6670°N, 16.2170°E)
Time: 11:34:43
(UTC+01:00)

Transit 2A - Pass Details

Date: 07 February 2023
Orbit: 591 x 964 km, 66.7° (Epoch: 21 March)

Event Time Altitude Azimuth Distance (km) Brightness Sun altitude
Rises 00:20:19 0° 320° (NW) 3,454 - -52.7°
Reaches altitude 10° 00:22:44 10° 320° (NW) 2,561 - -52.7°
Maximum altitude 00:28:47 87° 235° (SW) 943 - -52.6°
Drops below altitude 10° 00:35:09 10° 144° (SE) 2,692 - -52.4°
Sets 00:37:44 0° 144° (SE) 3,641 - -52.4°
